Time,TemperatureF,DewpointF,PressureIn,WindDirection,WindDirectionDegrees,WindSpeedMPH,WindSpeedGustMPH,Humidity,HourlyPrecipIn,Conditions,Clouds,dailyrainin,SoftwareType,DateUTC
2013-06-18 00:00:00,72.0,0.0,29.99,SSW,198,1.0,1.0,0,0.00,,-RA,0.00,VWS V14.01,2013-06-18 04:00:00,
2013-06-18 00:01:00,72.0,0.0,29.99,SSW,198,0.0,1.0,0,0.00,,-RA,0.00,VWS V14.01,2013-06-18 04:01:00,
2013-06-18 00:06:00,72.0,0.0,29.98,East,96,0.0,1.0,0,0.01,,-RA,0.01,VWS V14.01,2013-06-18 04:06:00,
2013-06-18 00:11:00,71.9,0.0,29.98,SE,146,0.0,1.0,0,0.02,,-RA,0.02,VWS V14.01,2013-06-18 04:11:00,
2013-06-18 00:16:00,71.8,0.0,29.97,SE,146,0.0,1.0,0,0.03,,-RA,0.03,VWS V14.01,2013-06-18 04:16:00,
2013-06-18 00:21:00,71.7,0.0,29.97,SE,146,0.0,1.0,0,0.03,,-RA,0.03,VWS V14.01,2013-06-18 04:21:00,
2013-06-18 00:26:00,71.5,0.0,29.97,SSE,147,0.0,1.0,0,0.04,,-RA,0.04,VWS V14.01,2013-06-18 04:26:00,
2013-06-18 00:31:00,71.4,0.0,29.97,SSE,147,0.0,0.0,0,0.04,,-RA,0.04,VWS V14.01,2013-06-18 04:31:00,
2013-06-18 00:36:00,71.3,0.0,29.97,SSE,147,0.0,0.0,0,0.04,,-RA,0.04,VWS V14.01,2013-06-18 04:36:00,
2013-06-18 00:41:00,71.1,0.0,29.97,SSE,147,0.0,0.0,0,0.04,,-RA,0.04,VWS V14.01,2013-06-18 04:41:00,
2013-06-18 00:46:00,71.1,0.0,29.96,SE,146,0.0,0.0,0,0.04,,-RA,0.04,VWS V14.01,2013-06-18 04:46:00,
2013-06-18 00:51:00,71.1,0.0,29.96,SSE,147,0.0,0.0,0,0.04,,-RA,0.04,VWS V14.01,2013-06-18 04:51:00,
2013-06-18 00:56:00,71.0,0.0,29.95,SSE,147,0.0,0.0,0,0.04,,-RA,0.04,VWS V14.01,2013-06-18 04:56:00,
2013-06-18 01:01:00,70.9,0.0,29.95,SSE,147,0.0,0.0,0,0.04,,,0.04,VWS V14.01,2013-06-18 05:01:00,
2013-06-18 01:06:00,70.8,0.0,29.95,SSE,147,0.0,0.0,0,0.04,,,0.04,VWS V14.01,2013-06-18 05:06:00,
2013-06-18 01:11:00,70.7,0.0,29.95,SE,146,0.0,0.0,0,0.04,,,0.04,VWS V14.01,2013-06-18 05:11:00,
2013-06-18 01:16:00,70.7,0.0,29.95,SE,146,0.0,0.0,0,0.04,,,0.04,VWS V14.01,2013-06-18 05:16:00,
2013-06-18 01:21:00,70.6,0.0,29.95,SE,146,0.0,0.0,0,0.04,,,0.04,VWS V14.01,2013-06-18 05:21:00,
2013-06-18 01:26:00,70.5,0.0,29.95,SE,146,0.0,0.0,0,0.04,,,0.04,VWS V14.01,2013-06-18 05:26:00,
2013-06-18 01:31:00,70.6,0.0,29.95,SE,146,0.0,0.0,0,0.00,,,0.04,VWS V14.01,2013-06-18 05:31:00,
2013-06-18 01:36:00,70.6,0.0,29.94,SSE,148,0.0,0.0,0,0.00,,,0.04,VWS V14.01,2013-06-18 05:36:00,
2013-06-18 01:41:00,70.5,0.0,29.94,SSE,148,0.0,0.0,0,0.00,,,0.04,VWS V14.01,2013-06-18 05:41:00,
2013-06-18 01:46:00,70.5,0.0,29.94,SSE,148,0.0,0.0,0,0.00,,,0.04,VWS V14.01,2013-06-18 05:46:00,
2013-06-18 01:51:00,70.4,0.0,29.94,SSE,148,0.0,0.0,0,0.00,,,0.04,VWS V14.01,2013-06-18 05:51:00,
2013-06-18 01:56:00,70.5,0.0,29.94,SSE,148,0.0,0.0,0,0.00,,,0.04,VWS V14.01,2013-06-18 05:56:00,
2013-06-18 02:01:00,70.5,0.0,29.94,SSE,148,0.0,0.0,0,0.00,,,0.04,VWS V14.01,2013-06-18 06:01:00,
2013-06-18 02:06:00,70.5,0.0,29.93,SSE,148,0.0,0.0,0,0.00,,,0.04,VWS V14.01,2013-06-18 06:06:00,
2013-06-18 02:11:00,70.6,0.0,29.93,SSE,148,0.0,0.0,0,0.00,,,0.04,VWS V14.01,2013-06-18 06:11:00,
2013-06-18 02:16:00,70.6,0.0,29.93,SSE,148,0.0,0.0,0,0.00,,,0.04,VWS V14.01,2013-06-18 06:16:00,
2013-06-18 02:21:00,70.6,0.0,29.93,SSE,148,0.0,0.0,0,0.00,,,0.04,VWS V14.01,2013-06-18 06:21:00,
2013-06-18 02:26:00,70.4,0.0,29.93,SSE,148,0.0,0.0,0,0.00,,,0.04,VWS V14.01,2013-06-18 06:26:00,
2013-06-18 02:31:00,70.4,0.0,29.93,SSE,148,0.0,0.0,0,0.00,,,0.04,VWS V14.01,2013-06-18 06:31:00,
2013-06-18 02:36:00,70.3,0.0,29.92,SSE,148,0.0,0.0,0,0.00,,,0.04,VWS V14.01,2013-06-18 06:36:00,
2013-06-18 02:41:00,70.2,0.0,29.92,SSE,148,0.0,0.0,0,0.00,,,0.04,VWS V14.01,2013-06-18 06:41:00,
2013-06-18 02:46:00,70.2,0.0,29.92,SSE,148,0.0,0.0,0,0.00,,,0.04,VWS V14.01,2013-06-18 06:46:00,
2013-06-18 02:51:00,70.1,0.0,29.92,SSE,148,0.0,0.0,0,0.00,,,0.04,VWS V14.01,2013-06-18 06:51:00,
2013-06-18 02:56:00,70.0,0.0,29.91,SSE,148,0.0,0.0,0,0.00,,,0.04,VWS V14.01,2013-06-18 06:56:00,
2013-06-18 03:01:00,69.9,0.0,29.91,SSE,148,0.0,0.0,0,0.00,,,0.04,VWS V14.01,2013-06-18 07:01:00,
2013-06-18 03:06:00,69.8,0.0,29.91,SSE,148,0.0,0.0,0,0.00,,,0.04,VWS V14.01,2013-06-18 07:06:00,
2013-06-18 03:11:00,69.7,0.0,29.91,SSE,148,0.0,0.0,0,0.00,,,0.04,VWS V14.01,2013-06-18 07:11:00,
2013-06-18 03:16:00,69.6,0.0,29.91,SSE,148,0.0,0.0,0,0.00,,,0.04,VWS V14.01,2013-06-18 07:16:00,
2013-06-18 03:21:00,69.5,0.0,29.91,SSE,148,0.0,0.0,0,0.00,,,0.04,VWS V14.01,2013-06-18 07:21:00,
2013-06-18 03:26:00,69.5,0.0,29.91,SSE,148,0.0,0.0,0,0.00,,,0.04,VWS V14.01,2013-06-18 07:26:00,
2013-06-18 03:31:00,69.6,0.0,29.90,SSE,148,0.0,0.0,0,0.00,,,0.04,VWS V14.01,2013-06-18 07:31:00,
2013-06-18 03:36:00,69.5,0.0,29.90,SSE,147,0.0,0.0,0,0.00,,,0.04,VWS V14.01,2013-06-18 07:36:00,
2013-06-18 03:41:00,69.6,0.0,29.89,SSE,148,0.0,0.0,0,0.00,,,0.04,VWS V14.01,2013-06-18 07:41:00,
2013-06-18 03:46:00,69.6,0.0,29.89,SSE,148,0.0,0.0,0,0.00,,,0.04,VWS V14.01,2013-06-18 07:46:00,
2013-06-18 03:51:00,69.8,0.0,29.89,SSE,148,0.0,0.0,0,0.00,,,0.04,VWS V14.01,2013-06-18 07:51:00,
2013-06-18 03:56:00,69.9,0.0,29.89,SE,146,0.0,1.0,0,0.00,,,0.04,VWS V14.01,2013-06-18 07:56:00,
2013-06-18 04:01:00,70.1,0.0,29.89,SSE,147,0.0,0.0,0,0.00,,,0.04,VWS V14.01,2013-06-18 08:01:00,
2013-06-18 04:06:00,70.1,0.0,29.89,SSE,152,0.0,0.0,0,0.00,,,0.04,VWS V14.01,2013-06-18 08:06:00,
2013-06-18 04:11:00,70.1,0.0,29.89,SE,143,1.0,1.0,0,0.00,,,0.04,VWS V14.01,2013-06-18 08:11:00,
2013-06-18 04:16:00,70.0,0.0,29.89,SE,141,0.0,1.0,0,0.00,,,0.04,VWS V14.01,2013-06-18 08:16:00,
2013-06-18 04:21:00,69.9,0.0,29.90,SE,141,0.0,1.0,0,0.00,,,0.04,VWS V14.01,2013-06-18 08:21:00,
2013-06-18 04:26:00,69.9,0.0,29.90,ESE,115,0.0,1.0,0,0.00,,,0.04,VWS V14.01,2013-06-18 08:26:00,
2013-06-18 04:32:00,69.8,0.0,29.90,ESE,115,0.0,0.0,0,0.00,,,0.04,VWS V14.01,2013-06-18 08:32:00,
2013-06-18 04:36:00,69.7,0.0,29.90,ESE,116,0.0,0.0,0,0.00,,,0.04,VWS V14.01,2013-06-18 08:36:00,
2013-06-18 04:42:00,69.7,0.0,29.90,ESE,115,0.0,0.0,0,0.00,,,0.04,VWS V14.01,2013-06-18 08:42:00,
2013-06-18 04:46:00,69.5,0.0,29.90,ESE,115,0.0,0.0,0,0.00,,,0.04,VWS V14.01,2013-06-18 08:46:00,
2013-06-18 04:52:00,69.4,0.0,29.90,ESE,115,0.0,0.0,0,0.00,,,0.04,VWS V14.01,2013-06-18 08:52:00,
2013-06-18 04:57:00,69.3,0.0,29.90,ESE,115,0.0,0.0,0,0.00,,,0.04,VWS V14.01,2013-06-18 08:57:00,
2013-06-18 05:02:00,69.3,0.0,29.90,ESE,115,0.0,0.0,0,0.00,,,0.04,VWS V14.01,2013-06-18 09:02:00,
2013-06-18 05:07:00,69.3,0.0,29.89,ESE,115,0.0,0.0,0,0.00,,,0.04,VWS V14.01,2013-06-18 09:07:00,
2013-06-18 05:12:00,69.3,0.0,29.90,ESE,115,0.0,0.0,0,0.00,,,0.04,VWS V14.01,2013-06-18 09:12:00,
2013-06-18 05:17:00,69.3,0.0,29.90,ESE,116,0.0,0.0,0,0.00,,,0.04,VWS V14.01,2013-06-18 09:17:00,
2013-06-18 05:22:00,69.2,0.0,29.90,ESE,115,0.0,0.0,0,0.00,,,0.04,VWS V14.01,2013-06-18 09:22:00,
2013-06-18 05:27:00,69.2,0.0,29.90,ESE,115,0.0,0.0,0,0.00,,,0.04,VWS V14.01,2013-06-18 09:27:00,
2013-06-18 05:32:00,69.2,0.0,29.90,ESE,116,0.0,0.0,0,0.00,,,0.04,VWS V14.01,2013-06-18 09:32:00,
2013-06-18 05:37:00,69.2,0.0,29.90,ESE,116,0.0,0.0,0,0.00,,,0.04,VWS V14.01,2013-06-18 09:37:00,
2013-06-18 05:42:00,69.2,0.0,29.90,ESE,115,0.0,0.0,0,0.00,,,0.04,VWS V14.01,2013-06-18 09:42:00,
2013-06-18 05:47:00,69.2,0.0,29.90,ESE,115,0.0,0.0,0,0.00,,,0.04,VWS V14.01,2013-06-18 09:47:00,
2013-06-18 05:52:00,69.1,0.0,29.90,ESE,115,0.0,0.0,0,0.00,,,0.04,VWS V14.01,2013-06-18 09:52:00,
2013-06-18 05:57:00,69.1,0.0,29.90,ESE,115,0.0,0.0,0,0.00,,,0.04,VWS V14.01,2013-06-18 09:57:00,
2013-06-18 06:02:00,69.1,0.0,29.90,ESE,115,0.0,0.0,0,0.00,,,0.04,VWS V14.01,2013-06-18 10:02:00,
2013-06-18 06:07:00,69.1,0.0,29.91,ESE,115,0.0,0.0,0,0.00,,,0.04,VWS V14.01,2013-06-18 10:07:00,
2013-06-18 06:12:00,69.1,0.0,29.91,ESE,115,0.0,0.0,0,0.00,,,0.04,VWS V14.01,2013-06-18 10:12:00,
2013-06-18 06:17:00,69.0,0.0,29.91,ESE,116,0.0,0.0,0,0.00,,,0.04,VWS V14.01,2013-06-18 10:17:00,
2013-06-18 06:22:00,69.0,0.0,29.92,ESE,115,0.0,0.0,0,0.00,,,0.04,VWS V14.01,2013-06-18 10:22:00,
2013-06-18 06:27:00,69.1,0.0,29.92,ESE,115,0.0,0.0,0,0.00,,,0.04,VWS V14.01,2013-06-18 10:27:00,
2013-06-18 06:32:00,69.0,0.0,29.92,ESE,115,0.0,0.0,0,0.00,,,0.04,VWS V14.01,2013-06-18 10:32:00,
2013-06-18 06:37:00,69.1,0.0,29.92,ESE,115,0.0,0.0,0,0.00,,,0.04,VWS V14.01,2013-06-18 10:37:00,
2013-06-18 06:42:00,69.2,0.0,29.91,ESE,115,0.0,0.0,0,0.00,,,0.04,VWS V14.01,2013-06-18 10:42:00,
2013-06-18 06:47:00,69.2,0.0,29.91,ESE,115,0.0,0.0,0,0.00,,,0.04,VWS V14.01,2013-06-18 10:47:00,
2013-06-18 06:52:00,69.2,0.0,29.91,ESE,115,0.0,0.0,0,0.00,,,0.04,VWS V14.01,2013-06-18 10:52:00,
2013-06-18 06:57:00,69.3,0.0,29.91,ESE,116,0.0,0.0,0,0.00,,,0.04,VWS V14.01,2013-06-18 10:57:00,
2013-06-18 07:02:00,69.4,0.0,29.91,ESE,115,0.0,0.0,0,0.00,,,0.04,VWS V14.01,2013-06-18 11:02:00,
2013-06-18 07:07:00,69.5,0.0,29.91,ESE,115,0.0,0.0,0,0.00,,,0.04,VWS V14.01,2013-06-18 11:07:00,
2013-06-18 07:12:00,69.6,0.0,29.91,ESE,115,0.0,1.0,0,0.00,,,0.04,VWS V14.01,2013-06-18 11:12:00,
2013-06-18 07:17:00,69.6,0.0,29.90,ESE,115,0.0,1.0,0,0.00,,,0.04,VWS V14.01,2013-06-18 11:17:00,
2013-06-18 07:22:00,69.7,0.0,29.91,ESE,116,0.0,1.0,0,0.00,,,0.04,VWS V14.01,2013-06-18 11:22:00,
2013-06-18 07:27:00,69.7,0.0,29.91,ESE,115,0.0,1.0,0,0.00,,,0.04,VWS V14.01,2013-06-18 11:27:00,
2013-06-18 07:32:00,69.7,0.0,29.91,ESE,116,0.0,0.0,0,0.00,,,0.04,VWS V14.01,2013-06-18 11:32:00,
2013-06-18 07:37:00,69.8,0.0,29.91,ESE,115,0.0,0.0,0,0.00,,,0.04,VWS V14.01,2013-06-18 11:37:00,
2013-06-18 07:42:00,69.9,0.0,29.91,ESE,116,0.0,0.0,0,0.00,,,0.04,VWS V14.01,2013-06-18 11:42:00,
2013-06-18 07:47:00,69.9,0.0,29.91,ESE,115,0.0,1.0,0,0.00,,,0.04,VWS V14.01,2013-06-18 11:47:00,
2013-06-18 07:52:00,70.0,0.0,29.91,ESE,116,0.0,1.0,0,0.00,,,0.04,VWS V14.01,2013-06-18 11:52:00,
2013-06-18 07:57:00,70.1,0.0,29.91,ESE,115,0.0,1.0,0,0.00,,,0.04,VWS V14.01,2013-06-18 11:57:00,
2013-06-18 08:02:00,69.9,0.0,29.91,SSE,160,1.0,1.0,0,0.00,,,0.04,VWS V14.01,2013-06-18 12:02:00,
2013-06-18 08:07:00,69.9,0.0,29.91,South,184,0.0,1.0,0,0.00,,,0.04,VWS V14.01,2013-06-18 12:07:00,
2013-06-18 08:12:00,70.1,0.0,29.91,South,184,0.0,1.0,0,0.00,,,0.04,VWS V14.01,2013-06-18 12:12:00,
2013-06-18 08:17:00,70.0,0.0,29.91,South,184,0.0,1.0,0,0.00,,,0.04,VWS V14.01,2013-06-18 12:17:00,
2013-06-18 08:22:00,70.2,0.0,29.91,South,184,0.0,1.0,0,0.00,,,0.04,VWS V14.01,2013-06-18 12:22:00,
2013-06-18 08:27:00,70.2,0.0,29.91,South,184,0.0,1.0,0,0.00,,,0.04,VWS V14.01,2013-06-18 12:27:00,
2013-06-18 08:32:00,70.2,0.0,29.90,South,185,0.0,0.0,0,0.00,,,0.04,VWS V14.01,2013-06-18 12:32:00,
2013-06-18 08:37:00,70.5,0.0,29.90,South,184,0.0,0.0,0,0.00,,,0.04,VWS V14.01,2013-06-18 12:37:00,
2013-06-18 08:42:00,70.7,0.0,29.90,South,184,0.0,0.0,0,0.00,,,0.04,VWS V14.01,2013-06-18 12:42:00,
2013-06-18 08:47:00,70.5,0.0,29.90,East,86,0.0,1.0,0,0.00,,,0.04,VWS V14.01,2013-06-18 12:47:00,
2013-06-18 08:52:00,70.7,0.0,29.90,East,86,0.0,1.0,0,0.00,,,0.04,VWS V14.01,2013-06-18 12:52:00,
2013-06-18 08:57:00,70.8,0.0,29.90,East,86,0.0,1.0,0,0.00,,,0.04,VWS V14.01,2013-06-18 12:57:00,
2013-06-18 09:02:00,70.9,0.0,29.91,East,86,0.0,0.0,0,0.00,,,0.04,VWS V14.01,2013-06-18 13:02:00,
2013-06-18 09:07:00,70.9,0.0,29.91,East,86,0.0,0.0,0,0.00,,,0.04,VWS V14.01,2013-06-18 13:07:00,
2013-06-18 09:12:00,71.1,0.0,29.91,East,86,0.0,0.0,0,0.00,,,0.04,VWS V14.01,2013-06-18 13:12:00,
2013-06-18 09:17:00,71.2,0.0,29.91,East,87,0.0,0.0,0,0.00,,,0.04,VWS V14.01,2013-06-18 13:17:00,
2013-06-18 09:22:00,71.3,0.0,29.91,East,87,0.0,0.0,0,0.00,,,0.04,VWS V14.01,2013-06-18 13:22:00,
2013-06-18 09:27:00,71.4,0.0,29.91,South,180,1.0,1.0,0,0.00,,,0.04,VWS V14.01,2013-06-18 13:27:00,
2013-06-18 09:32:00,71.5,0.0,29.91,East,94,0.0,1.0,0,0.00,,,0.04,VWS V14.01,2013-06-18 13:32:00,
2013-06-18 09:37:00,71.9,0.0,29.91,SE,144,0.0,1.0,0,0.00,,,0.04,VWS V14.01,2013-06-18 13:37:00,
2013-06-18 09:42:00,72.3,0.0,29.91,SSE,148,0.0,1.0,0,0.00,,,0.04,VWS V14.01,2013-06-18 13:42:00,
2013-06-18 09:47:00,72.6,0.0,29.91,SE,132,0.0,1.0,0,0.00,,,0.04,VWS V14.01,2013-06-18 13:47:00,
2013-06-18 09:52:00,72.6,0.0,29.91,SE,133,0.0,1.0,0,0.00,,,0.04,VWS V14.01,2013-06-18 13:52:00,
2013-06-18 09:57:00,72.6,0.0,29.91,ESE,113,0.0,3.0,0,0.00,,,0.04,VWS V14.01,2013-06-18 13:57:00,
2013-06-18 10:02:00,72.9,0.0,29.91,WNW,284,0.0,1.0,0,0.00,,,0.04,VWS V14.01,2013-06-18 14:02:00,
2013-06-18 10:07:00,72.9,0.0,29.91,WNW,284,0.0,1.0,0,0.00,,,0.04,VWS V14.01,2013-06-18 14:07:00,
2013-06-18 10:12:00,73.1,0.0,29.90,SW,224,0.0,1.0,0,0.00,,,0.04,VWS V14.01,2013-06-18 14:12:00,
2013-06-18 10:17:00,73.4,0.0,29.91,SSW,195,0.0,1.0,0,0.00,,,0.04,VWS V14.01,2013-06-18 14:17:00,
2013-06-18 10:22:00,73.3,0.0,29.90,SSE,162,2.0,2.0,0,0.00,,,0.04,VWS V14.01,2013-06-18 14:22:00,
2013-06-18 10:27:00,73.6,0.0,29.90,East,94,0.0,2.0,0,0.00,,,0.04,VWS V14.01,2013-06-18 14:27:00,
2013-06-18 10:32:00,73.5,0.0,29.90,SSE,150,0.0,1.0,0,0.00,,,0.04,VWS V14.01,2013-06-18 14:32:00,
2013-06-18 10:37:00,73.4,0.0,29.90,ENE,77,0.0,1.0,0,0.00,,,0.04,VWS V14.01,2013-06-18 14:37:00,
2013-06-18 10:42:00,73.4,0.0,29.89,WSW,248,0.0,1.0,0,0.00,,,0.04,VWS V14.01,2013-06-18 14:42:00,
2013-06-18 10:47:00,73.6,0.0,29.90,ESE,109,0.0,2.0,0,0.00,,,0.04,VWS V14.01,2013-06-18 14:47:00,
2013-06-18 10:52:00,74.0,0.0,29.90,ESE,108,0.0,2.0,0,0.00,,,0.04,VWS V14.01,2013-06-18 14:52:00,
2013-06-18 10:57:00,74.2,0.0,29.90,ESE,113,0.0,2.0,0,0.00,,,0.04,VWS V14.01,2013-06-18 14:57:00,
2013-06-18 11:02:00,74.4,0.0,29.90,ESE,113,0.0,1.0,0,0.00,,,0.04,VWS V14.01,2013-06-18 15:02:00,
2013-06-18 11:07:00,74.3,0.0,29.90,SE,145,2.0,2.0,0,0.00,,,0.04,VWS V14.01,2013-06-18 15:07:00,
2013-06-18 11:12:00,74.4,0.0,29.90,SSE,151,0.0,2.0,0,0.00,,,0.04,VWS V14.01,2013-06-18 15:12:00,
2013-06-18 11:17:00,74.2,0.0,29.90,ESE,115,0.0,2.0,0,0.00,,,0.04,VWS V14.01,2013-06-18 15:17:00,
2013-06-18 11:22:00,74.2,0.0,29.90,SE,139,1.0,2.0,0,0.00,,,0.04,VWS V14.01,2013-06-18 15:22:00,
2013-06-18 11:27:00,74.2,0.0,29.91,SSE,156,1.0,2.0,0,0.00,,,0.04,VWS V14.01,2013-06-18 15:27:00,
2013-06-18 11:32:00,74.2,0.0,29.91,SW,224,0.0,1.0,0,0.00,,,0.04,VWS V14.01,2013-06-18 15:32:00,
2013-06-18 11:37:00,74.1,0.0,29.91,SE,139,0.0,2.0,0,0.00,,,0.04,VWS V14.01,2013-06-18 15:37:00,
2013-06-18 11:42:00,73.9,0.0,29.90,South,172,0.0,2.0,0,0.01,,,0.05,VWS V14.01,2013-06-18 15:42:00,
2013-06-18 11:47:00,73.8,0.0,29.90,SW,228,0.0,2.0,0,0.01,,,0.05,VWS V14.01,2013-06-18 15:47:00,
2013-06-18 11:52:00,73.6,0.0,29.89,SE,125,0.0,2.0,0,0.02,,,0.06,VWS V14.01,2013-06-18 15:52:00,
2013-06-18 11:57:00,73.8,0.0,29.88,SE,126,0.0,2.0,0,0.02,,,0.06,VWS V14.01,2013-06-18 15:57:00,
2013-06-18 12:02:00,73.7,0.0,29.88,South,172,0.0,1.0,0,0.02,,,0.06,VWS V14.01,2013-06-18 16:02:00,
2013-06-18 12:07:00,73.7,0.0,29.87,South,173,0.0,1.0,0,0.02,,,0.06,VWS V14.01,2013-06-18 16:07:00,
2013-06-18 12:12:00,74.0,0.0,29.87,South,173,0.0,1.0,0,0.02,,,0.06,VWS V14.01,2013-06-18 16:12:00,
2013-06-18 12:17:00,74.3,0.0,29.88,SSW,194,0.0,1.0,0,0.02,,,0.06,VWS V14.01,2013-06-18 16:17:00,
2013-06-18 12:22:00,74.7,0.0,29.87,SSE,166,0.0,1.0,0,0.02,,,0.06,VWS V14.01,2013-06-18 16:22:00,
2013-06-18 12:27:00,74.7,0.0,29.87,SSE,165,0.0,1.0,0,0.02,,,0.06,VWS V14.01,2013-06-18 16:27:00,
2013-06-18 12:32:00,74.9,0.0,29.87,SSE,165,0.0,0.0,0,0.02,,,0.06,VWS V14.01,2013-06-18 16:32:00,
2013-06-18 12:37:00,75.1,0.0,29.86,SSE,165,0.0,0.0,0,0.02,,,0.06,VWS V14.01,2013-06-18 16:37:00,
2013-06-18 12:42:00,75.5,0.0,29.86,SE,131,0.0,1.0,0,0.02,,,0.06,VWS V14.01,2013-06-18 16:42:00,
2013-06-18 12:47:00,75.9,0.0,29.86,SSW,210,0.0,2.0,0,0.02,,,0.06,VWS V14.01,2013-06-18 16:47:00,
2013-06-18 12:52:00,75.8,0.0,29.86,SE,128,0.0,3.0,0,0.02,,,0.06,VWS V14.01,2013-06-18 16:52:00,
2013-06-18 12:57:00,76.0,0.0,29.86,SE,145,1.0,3.0,0,0.02,,,0.06,VWS V14.01,2013-06-18 16:57:00,
2013-06-18 13:02:00,76.1,0.0,29.86,South,181,0.0,0.0,0,0.00,,,0.06,VWS V14.01,2013-06-18 17:02:00,
2013-06-18 13:07:00,76.2,0.0,29.85,SSE,155,0.0,1.0,0,0.00,,,0.06,VWS V14.01,2013-06-18 17:07:00,
2013-06-18 13:12:00,76.2,0.0,29.85,SSE,151,1.0,1.0,0,0.00,,,0.06,VWS V14.01,2013-06-18 17:12:00,
2013-06-18 13:18:00,76.1,0.0,29.85,SSE,166,2.0,3.0,0,0.00,,,0.06,VWS V14.01,2013-06-18 17:18:00,
2013-06-18 13:23:00,76.0,0.0,29.85,SE,127,0.0,3.0,0,0.00,,,0.06,VWS V14.01,2013-06-18 17:23:00,
2013-06-18 13:28:00,76.1,0.0,29.85,SSE,160,0.0,3.0,0,0.00,,,0.06,VWS V14.01,2013-06-18 17:28:00,
2013-06-18 13:33:00,75.8,0.0,29.84,ESE,122,0.0,2.0,0,0.00,,,0.06,VWS V14.01,2013-06-18 17:33:00,
2013-06-18 13:38:00,75.8,0.0,29.84,SSE,151,0.0,2.0,0,0.00,,,0.06,VWS V14.01,2013-06-18 17:38:00,
2013-06-18 13:43:00,75.9,0.0,29.84,SSW,201,0.0,2.0,0,0.00,,,0.06,VWS V14.01,2013-06-18 17:43:00,
2013-06-18 13:48:00,75.9,0.0,29.84,SSW,200,1.0,2.0,0,0.00,,,0.06,VWS V14.01,2013-06-18 17:48:00,
2013-06-18 13:53:00,76.1,0.0,29.85,South,185,0.0,2.0,0,0.00,,,0.06,VWS V14.01,2013-06-18 17:53:00,
2013-06-18 13:58:00,75.9,0.0,29.84,SSE,150,3.0,3.0,0,0.00,,,0.06,VWS V14.01,2013-06-18 17:58:00,
2013-06-18 14:03:00,75.9,0.0,29.84,South,170,1.0,2.0,0,0.00,,,0.06,VWS V14.01,2013-06-18 18:03:00,
2013-06-18 14:08:00,76.2,0.0,29.84,South,174,1.0,4.0,0,0.00,,,0.06,VWS V14.01,2013-06-18 18:08:00,
2013-06-18 14:13:00,76.1,0.0,29.84,SE,145,3.0,7.0,0,0.00,,,0.06,VWS V14.01,2013-06-18 18:13:00,
2013-06-18 14:18:00,76.2,0.0,29.84,SSE,152,1.0,7.0,0,0.00,,,0.06,VWS V14.01,2013-06-18 18:18:00,
2013-06-18 14:23:00,76.4,0.0,29.84,SE,128,2.0,7.0,0,0.00,,,0.06,VWS V14.01,2013-06-18 18:23:00,
2013-06-18 14:28:00,76.5,0.0,29.84,SSE,165,0.0,7.0,0,0.00,,,0.06,VWS V14.01,2013-06-18 18:28:00,
2013-06-18 14:33:00,76.6,-18.0,29.84,SE,145,1.0,3.0,2,0.00,,,0.06,VWS V14.01,2013-06-18 18:33:00,
2013-06-18 14:38:00,76.6,0.7,29.84,SSE,158,1.0,3.0,5,0.00,,,0.06,VWS V14.01,2013-06-18 18:38:00,
2013-06-18 14:43:00,76.8,0.0,29.84,ESE,110,1.0,3.0,0,0.00,,,0.06,VWS V14.01,2013-06-18 18:43:00,
2013-06-18 14:48:00,76.8,0.0,29.84,SSE,152,1.0,3.0,0,0.00,,,0.06,VWS V14.01,2013-06-18 18:48:00,
2013-06-18 14:53:00,76.8,8.1,29.83,South,174,1.0,4.0,7,0.00,,,0.06,VWS V14.01,2013-06-18 18:53:00,
2013-06-18 14:58:00,77.2,-17.6,29.83,WSW,250,1.0,4.0,2,0.00,,,0.06,VWS V14.01,2013-06-18 18:58:00,
2013-06-18 15:03:00,77.9,0.0,29.83,SSE,160,3.0,3.0,0,0.00,,,0.06,VWS V14.01,2013-06-18 19:03:00,
2013-06-18 15:08:00,78.1,26.7,29.83,SE,128,3.0,5.0,15,0.00,,,0.06,VWS V14.01,2013-06-18 19:08:00,
2013-06-18 15:13:00,78.3,29.9,29.83,SSW,203,2.0,5.0,17,0.00,,,0.06,VWS V14.01,2013-06-18 19:13:00,
2013-06-18 15:18:00,78.3,37.5,29.83,South,185,4.0,6.0,23,0.00,,,0.06,VWS V14.01,2013-06-18 19:18:00,
2013-06-18 15:23:00,78.2,39.5,29.83,SSE,156,2.0,6.0,25,0.00,,,0.06,VWS V14.01,2013-06-18 19:23:00,
2013-06-18 15:28:00,78.1,35.0,29.83,SSE,156,1.0,6.0,21,0.00,,,0.06,VWS V14.01,2013-06-18 19:28:00,
2013-06-18 15:33:00,77.8,33.6,29.83,SSW,193,1.0,4.0,20,0.00,,,0.06,VWS V14.01,2013-06-18 19:33:00,
2013-06-18 15:38:00,77.5,14.3,29.83,SSE,162,0.0,4.0,9,0.00,,,0.06,VWS V14.01,2013-06-18 19:38:00,
2013-06-18 15:43:00,77.1,8.3,29.83,WSW,257,0.0,4.0,7,0.00,,,0.06,VWS V14.01,2013-06-18 19:43:00,
2013-06-18 15:48:00,76.8,4.7,29.83,SSW,210,0.0,4.0,6,0.00,,,0.06,VWS V14.01,2013-06-18 19:48:00,
2013-06-18 15:53:00,77.0,0.0,29.83,South,172,0.0,4.0,0,0.00,,,0.06,VWS V14.01,2013-06-18 19:53:00,
2013-06-18 15:58:00,77.0,0.0,29.83,SSW,193,4.0,5.0,0,0.00,,,0.06,VWS V14.01,2013-06-18 19:58:00,
2013-06-18 16:03:00,76.4,0.5,29.83,SSE,148,1.0,4.0,5,0.00,,,0.06,VWS V14.01,2013-06-18 20:03:00,
2013-06-18 16:08:00,76.1,0.0,29.83,South,190,0.0,4.0,0,0.01,,,0.07,VWS V14.01,2013-06-18 20:08:00,
2013-06-18 16:13:00,76.4,0.0,29.83,SSE,155,0.0,4.0,0,0.02,,,0.08,VWS V14.01,2013-06-18 20:13:00,
2013-06-18 16:18:00,76.3,0.0,29.83,SSE,162,0.0,4.0,0,0.02,,,0.08,VWS V14.01,2013-06-18 20:18:00,
2013-06-18 16:23:00,76.5,0.0,29.82,SSE,153,0.0,4.0,0,0.02,,,0.08,VWS V14.01,2013-06-18 20:23:00,
2013-06-18 16:28:00,76.3,0.0,29.82,SSE,153,0.0,4.0,0,0.02,,,0.08,VWS V14.01,2013-06-18 20:28:00,
2013-06-18 16:33:00,76.0,0.0,29.82,SSE,168,1.0,1.0,0,0.02,,,0.08,VWS V14.01,2013-06-18 20:33:00,
2013-06-18 16:38:00,76.0,0.0,29.82,SSE,168,0.0,1.0,0,0.02,,,0.08,VWS V14.01,2013-06-18 20:38:00,
2013-06-18 16:43:00,76.3,0.0,29.82,SSE,168,0.0,1.0,0,0.02,,,0.08,VWS V14.01,2013-06-18 20:43:00,
2013-06-18 16:48:00,76.4,0.0,29.82,SE,139,0.0,1.0,0,0.02,,,0.08,VWS V14.01,2013-06-18 20:48:00,
2013-06-18 16:53:00,76.4,0.0,29.82,SSE,156,1.0,2.0,0,0.02,,,0.08,VWS V14.01,2013-06-18 20:53:00,
2013-06-18 16:58:00,76.5,0.0,29.83,South,176,2.0,3.0,0,0.02,,,0.08,VWS V14.01,2013-06-18 20:58:00,
2013-06-18 17:03:00,76.9,0.0,29.83,WSW,255,1.0,2.0,0,0.02,,,0.08,VWS V14.01,2013-06-18 21:03:00,
2013-06-18 17:08:00,77.3,0.0,29.83,SE,141,0.0,2.0,0,0.02,,,0.08,VWS V14.01,2013-06-18 21:08:00,
2013-06-18 17:13:00,77.5,0.0,29.83,ESE,111,0.0,2.0,0,0.02,,,0.08,VWS V14.01,2013-06-18 21:13:00,
2013-06-18 17:18:00,77.3,0.0,29.83,NE,45,0.0,2.0,0,0.02,,,0.08,VWS V14.01,2013-06-18 21:18:00,
2013-06-18 17:23:00,77.0,0.0,29.83,NE,46,0.0,2.0,0,0.02,,,0.08,VWS V14.01,2013-06-18 21:23:00,
2013-06-18 17:28:00,76.3,0.0,29.83,ENE,60,1.0,2.0,0,0.02,,,0.08,VWS V14.01,2013-06-18 21:28:00,
2013-06-18 17:33:00,75.1,0.0,29.83,NNE,20,1.0,2.0,0,0.00,,,0.08,VWS V14.01,2013-06-18 21:33:00,
2013-06-18 17:38:00,74.2,0.0,29.83,SSE,163,0.0,2.0,0,0.01,,,0.09,VWS V14.01,2013-06-18 21:38:00,
2013-06-18 17:43:00,74.0,0.0,29.83,SSE,163,0.0,2.0,0,0.02,,,0.10,VWS V14.01,2013-06-18 21:43:00,
2013-06-18 17:48:00,73.9,0.0,29.83,East,93,0.0,2.0,0,0.04,,,0.12,VWS V14.01,2013-06-18 21:48:00,
2013-06-18 17:53:00,73.8,0.0,29.82,ENE,77,0.0,2.0,0,0.04,,,0.12,VWS V14.01,2013-06-18 21:53:00,
2013-06-18 17:58:00,73.8,0.0,29.83,ENE,77,0.0,2.0,0,0.04,,,0.12,VWS V14.01,2013-06-18 21:58:00,
2013-06-18 18:03:00,73.7,0.0,29.83,ENE,77,0.0,1.0,0,0.04,,,0.12,VWS V14.01,2013-06-18 22:03:00,
2013-06-18 18:08:00,73.7,0.0,29.82,ENE,77,0.0,1.0,0,0.04,,,0.12,VWS V14.01,2013-06-18 22:08:00,
2013-06-18 18:13:00,73.5,0.0,29.82,ENE,78,0.0,1.0,0,0.04,,,0.12,VWS V14.01,2013-06-18 22:13:00,
2013-06-18 18:18:00,73.6,0.0,29.82,East,94,0.0,1.0,0,0.04,,,0.12,VWS V14.01,2013-06-18 22:18:00,
2013-06-18 18:23:00,73.3,0.0,29.82,ENE,62,0.0,1.0,0,0.04,,,0.12,VWS V14.01,2013-06-18 22:23:00,
2013-06-18 18:28:00,73.4,0.0,29.82,ESE,103,0.0,1.0,0,0.04,,,0.12,VWS V14.01,2013-06-18 22:28:00,
2013-06-18 18:33:00,73.4,0.0,29.82,ESE,103,0.0,0.0,0,0.04,,,0.12,VWS V14.01,2013-06-18 22:33:00,
2013-06-18 18:38:00,73.3,0.0,29.83,East,96,0.0,1.0,0,0.04,,,0.12,VWS V14.01,2013-06-18 22:38:00,
2013-06-18 18:43:00,73.3,0.0,29.83,East,97,0.0,1.0,0,0.04,,,0.12,VWS V14.01,2013-06-18 22:43:00,
2013-06-18 18:48:00,73.3,0.0,29.83,East,98,0.0,1.0,0,0.04,,,0.12,VWS V14.01,2013-06-18 22:48:00,
2013-06-18 18:53:00,73.2,0.0,29.83,East,97,0.0,1.0,0,0.04,,,0.12,VWS V14.01,2013-06-18 22:53:00,
2013-06-18 18:58:00,73.2,0.0,29.83,WSW,252,0.0,1.0,0,0.04,,,0.12,VWS V14.01,2013-06-18 22:58:00,
2013-06-18 19:03:00,73.1,0.0,29.83,WSW,252,0.0,0.0,0,0.00,,,0.12,VWS V14.01,2013-06-18 23:03:00,
2013-06-18 19:08:00,73.4,0.0,29.84,WSW,252,0.0,0.0,0,0.00,,,0.12,VWS V14.01,2013-06-18 23:08:00,
2013-06-18 19:13:00,73.4,0.0,29.84,WSW,252,0.0,0.0,0,0.00,,,0.12,VWS V14.01,2013-06-18 23:13:00,
2013-06-18 19:18:00,73.3,0.0,29.84,WSW,251,0.0,0.0,0,0.00,,,0.12,VWS V14.01,2013-06-18 23:18:00,
2013-06-18 19:23:00,73.2,0.0,29.84,WSW,251,0.0,0.0,0,0.00,,,0.12,VWS V14.01,2013-06-18 23:23:00,
2013-06-18 19:28:00,73.1,0.0,29.84,WSW,252,0.0,0.0,0,0.00,,,0.12,VWS V14.01,2013-06-18 23:28:00,
2013-06-18 19:33:00,72.9,0.0,29.84,WSW,252,0.0,1.0,0,0.00,,,0.12,VWS V14.01,2013-06-18 23:33:00,
2013-06-18 19:38:00,73.0,0.0,29.84,WSW,252,0.0,1.0,0,0.00,,,0.12,VWS V14.01,2013-06-18 23:38:00,
2013-06-18 19:43:00,73.0,0.0,29.84,WSW,251,0.0,1.0,0,0.00,,,0.12,VWS V14.01,2013-06-18 23:43:00,
2013-06-18 19:48:00,72.7,0.0,29.85,WSW,252,0.0,1.0,0,0.00,,,0.12,VWS V14.01,2013-06-18 23:48:00,
2013-06-18 19:53:00,72.5,0.0,29.85,WSW,251,0.0,1.0,0,0.00,,,0.12,VWS V14.01,2013-06-18 23:53:00,
2013-06-18 19:58:00,72.4,0.0,29.85,WSW,252,0.0,1.0,0,0.00,,,0.12,VWS V14.01,2013-06-18 23:58:00,
2013-06-18 20:03:00,72.3,0.0,29.85,WSW,251,0.0,0.0,0,0.00,,,0.12,VWS V14.01,2013-06-19 00:03:00,
2013-06-18 20:08:00,72.1,0.0,29.85,WSW,252,0.0,0.0,0,0.00,,,0.12,VWS V14.01,2013-06-19 00:08:00,
2013-06-18 20:13:00,72.0,0.0,29.85,WSW,252,0.0,0.0,0,0.00,,,0.12,VWS V14.01,2013-06-19 00:13:00,
2013-06-18 20:18:00,71.8,0.0,29.86,WSW,251,0.0,1.0,0,0.00,,,0.12,VWS V14.01,2013-06-19 00:18:00,
2013-06-18 20:23:00,71.6,0.0,29.86,WSW,252,0.0,1.0,0,0.00,,,0.12,VWS V14.01,2013-06-19 00:23:00,
2013-06-18 20:28:00,71.3,0.0,29.86,WSW,252,0.0,1.0,0,0.00,,,0.12,VWS V14.01,2013-06-19 00:28:00,
2013-06-18 20:33:00,71.2,0.0,29.86,WSW,252,0.0,0.0,0,0.00,,,0.12,VWS V14.01,2013-06-19 00:33:00,
2013-06-18 20:38:00,71.0,0.0,29.86,WSW,252,0.0,0.0,0,0.00,,,0.12,VWS V14.01,2013-06-19 00:38:00,
2013-06-18 20:43:00,70.7,0.0,29.86,WSW,252,0.0,0.0,0,0.00,,,0.12,VWS V14.01,2013-06-19 00:43:00,
2013-06-18 20:48:00,70.6,0.0,29.86,WSW,251,0.0,0.0,0,0.00,,,0.12,VWS V14.01,2013-06-19 00:48:00,
2013-06-18 20:53:00,70.4,0.0,29.86,WSW,252,0.0,0.0,0,0.00,,,0.12,VWS V14.01,2013-06-19 00:53:00,
2013-06-18 20:58:00,70.2,0.0,29.86,WSW,251,0.0,0.0,0,0.00,,,0.12,VWS V14.01,2013-06-19 00:58:00,
2013-06-18 21:03:00,70.1,0.0,29.87,WSW,252,0.0,0.0,0,0.00,,,0.12,VWS V14.01,2013-06-19 01:03:00,
2013-06-18 21:08:00,70.0,0.0,29.87,WSW,252,0.0,0.0,0,0.00,,,0.12,VWS V14.01,2013-06-19 01:08:00,
2013-06-18 21:13:00,69.8,0.0,29.88,WSW,252,0.0,0.0,0,0.00,,,0.12,VWS V14.01,2013-06-19 01:13:00,
2013-06-18 21:18:00,69.6,0.0,29.88,WSW,252,0.0,0.0,0,0.00,,,0.12,VWS V14.01,2013-06-19 01:18:00,
2013-06-18 21:23:00,69.4,0.0,29.88,WSW,251,0.0,0.0,0,0.00,,,0.12,VWS V14.01,2013-06-19 01:23:00,
2013-06-18 21:28:00,69.4,0.0,29.88,WSW,252,0.0,0.0,0,0.00,,,0.12,VWS V14.01,2013-06-19 01:28:00,
2013-06-18 21:33:00,69.3,0.0,29.88,WSW,252,0.0,0.0,0,0.00,,,0.12,VWS V14.01,2013-06-19 01:33:00,
2013-06-18 21:38:00,69.2,0.0,29.88,WSW,252,0.0,0.0,0,0.00,,,0.12,VWS V14.01,2013-06-19 01:38:00,
2013-06-18 21:44:00,69.2,0.0,29.88,WSW,252,0.0,1.0,0,0.00,,,0.12,VWS V14.01,2013-06-19 01:44:00,
2013-06-18 21:49:00,69.1,0.0,29.89,WSW,252,0.0,1.0,0,0.00,,,0.12,VWS V14.01,2013-06-19 01:49:00,
2013-06-18 21:54:00,68.9,0.0,29.89,WSW,252,0.0,1.0,0,0.00,,,0.12,VWS V14.01,2013-06-19 01:54:00,
2013-06-18 21:59:00,68.7,0.0,29.89,WSW,252,0.0,1.0,0,0.00,,,0.12,VWS V14.01,2013-06-19 01:59:00,
2013-06-18 22:04:00,68.6,0.0,29.90,WSW,251,0.0,0.0,0,0.00,,,0.12,VWS V14.01,2013-06-19 02:04:00,
2013-06-18 22:09:00,68.5,0.0,29.90,WSW,252,0.0,0.0,0,0.00,,,0.12,VWS V14.01,2013-06-19 02:09:00,
2013-06-18 22:14:00,68.4,0.0,29.90,WSW,252,0.0,0.0,0,0.00,,,0.12,VWS V14.01,2013-06-19 02:14:00,
2013-06-18 22:19:00,68.3,0.0,29.90,WSW,252,0.0,0.0,0,0.00,,,0.12,VWS V14.01,2013-06-19 02:19:00,
2013-06-18 22:24:00,68.2,0.0,29.91,WSW,252,0.0,0.0,0,0.00,,,0.12,VWS V14.01,2013-06-19 02:24:00,
2013-06-18 22:29:00,68.0,0.0,29.91,WSW,252,0.0,0.0,0,0.00,,,0.12,VWS V14.01,2013-06-19 02:29:00,
2013-06-18 22:34:00,67.9,0.0,29.92,WSW,252,0.0,0.0,0,0.00,,,0.12,VWS V14.01,2013-06-19 02:34:00,
2013-06-18 22:39:00,67.8,0.0,29.91,WSW,251,0.0,0.0,0,0.00,,,0.12,VWS V14.01,2013-06-19 02:39:00,
2013-06-18 22:44:00,67.7,0.0,29.92,WSW,252,0.0,0.0,0,0.00,,,0.12,VWS V14.01,2013-06-19 02:44:00,
2013-06-18 22:49:00,67.6,0.0,29.92,WSW,251,0.0,0.0,0,0.00,,,0.12,VWS V14.01,2013-06-19 02:49:00,
2013-06-18 22:54:00,67.6,0.0,29.92,WSW,251,0.0,0.0,0,0.00,,,0.12,VWS V14.01,2013-06-19 02:54:00,
2013-06-18 22:59:00,67.5,0.0,29.92,WSW,252,0.0,0.0,0,0.00,,,0.12,VWS V14.01,2013-06-19 02:59:00,
2013-06-18 23:04:00,67.4,0.0,29.93,WSW,252,0.0,0.0,0,0.00,,,0.12,VWS V14.01,2013-06-19 03:04:00,
2013-06-18 23:09:00,67.3,0.0,29.93,WSW,251,0.0,0.0,0,0.00,,,0.12,VWS V14.01,2013-06-19 03:09:00,
2013-06-18 23:14:00,67.3,0.0,29.93,WSW,252,0.0,0.0,0,0.00,,,0.12,VWS V14.01,2013-06-19 03:14:00,
2013-06-18 23:19:00,67.2,0.0,29.94,WSW,252,0.0,0.0,0,0.00,,,0.12,VWS V14.01,2013-06-19 03:19:00,
2013-06-18 23:24:00,67.2,0.0,29.94,WSW,252,0.0,0.0,0,0.00,,,0.12,VWS V14.01,2013-06-19 03:24:00,
2013-06-18 23:29:00,67.2,0.0,29.94,WSW,252,0.0,0.0,0,0.00,,,0.12,VWS V14.01,2013-06-19 03:29:00,
2013-06-18 23:34:00,67.3,0.0,29.94,WSW,252,0.0,0.0,0,0.00,,,0.12,VWS V14.01,2013-06-19 03:34:00,
2013-06-18 23:39:00,67.3,0.0,29.94,WSW,251,0.0,0.0,0,0.00,,,0.12,VWS V14.01,2013-06-19 03:39:00,
2013-06-18 23:44:00,67.4,0.0,29.94,WSW,252,0.0,0.0,0,0.00,,,0.12,VWS V14.01,2013-06-19 03:44:00,
2013-06-18 23:49:00,67.4,0.0,29.94,WSW,252,0.0,1.0,0,0.00,,,0.12,VWS V14.01,2013-06-19 03:49:00,
2013-06-18 23:54:00,67.4,0.0,29.94,WSW,252,0.0,1.0,0,0.00,,,0.12,VWS V14.01,2013-06-19 03:54:00,
2013-06-18 23:59:00,67.5,0.0,29.94,WSW,252,0.0,1.0,0,0.00,,,0.12,VWS V14.01,2013-06-19 03:59:00,